VK6MTG Weather Reports


time (UTC)temp
F
wind
direction
speed
knots
gust
knots
rain 1hr
in
rain 24hr
in
rain mn
in
humidity
%
barometer
mb
20260506211841 59 112 2.6 5.2 0.00 0.00 0.00 52 1214.5
20260506211150 59 135 2.6 2.6 0.00 0.00 0.00 52 1215.5
20260506210649 59 112 2.6 3.5 0.00 0.00 0.00 52 1215.5
20260506210149 59 101 2.6 3.5 0.00 0.00 0.00 52 1215.5
20260506205650 59 90 2.6 2.6 0.00 0.00 0.00 51 1215.5
20260506205149 59 82 2.6 2.6 0.00 0.00 0.00 51 1215.5
20260506204649 59 158 1.7 2.6 0.00 0.00 0.00 51 1215.5
20260506203806 59 90 2.6 2.6 0.00 0.00 0.00 51 1215.5
20260506203307 59 112 2.6 2.6 0.00 0.00 0.00 51 1215.5
20260506202806 59 68 2.6 2.6 0.00 0.00 0.00 51 1215.5
20260506202307 59 68 2.6 3.5 0.00 0.00 0.00 50 1215.5
20260506201807 59 101 2.6 3.5 0.00 0.00 0.00 50 1215.5
20260506201307 59 112 2.6 2.6 0.00 0.00 0.00 50 1216.5
20260506200806 59 68 1.7 2.6 0.00 0.00 0.00 50 1216.5
20260506200307 59 90 2.6 3.5 0.00 0.00 0.00 50 1216.5
20260506195807 59 98 0.9 3.5 0.00 0.00 0.00 50 1216.5
20260506195306 60 112 3.5 3.5 0.00 0.00 0.00 50 1216.5
20260506194615 60 68 3.5 6.1 0.00 0.00 0.00 50 1216.5
20260506193924 60 112 3.5 4.3 0.00 0.00 0.00 50 1215.5
20260506193424 60 112 3.5 5.2 0.00 0.00 0.00 49 1215.5
20260506192924 60 60 2.6 5.2 0.00 0.00 0.00 49 1215.5
20260506192425 60 68 3.5 5.2 0.00 0.00 0.00 49 1216.5
20260506191924 60 0 3.5 3.5 0.00 0.00 0.00 49 1216.5
20260506191424 60 0 2.6 4.3 0.00 0.00 0.00 49 1216.5
20260506190924 60 90 3.5 7.0 0.00 0.00 0.00 49 1214.5
20260506190424 60 112 7.0 7.0 0.00 0.00 0.00 49 1214.5
20260506185924 60 112 3.5 5.2 0.00 0.00 0.00 49 1214.5
20260506185233 60 112 3.5 5.2 0.00 0.00 0.00 49 1216.5
20260506184732 60 90 4.3 5.2 0.00 0.00 0.00 48 1216.5
20260506184233 60 45 3.5 5.2 0.00 0.00 0.00 48 1217.5
20260506183542 61 98 5.2 5.2 0.00 0.00 0.00 48 1217.5
20260506183042 61 68 3.5 4.3 0.00 0.00 0.00 48 1217.5
20260506182541 61 90 2.6 5.2 0.00 0.00 0.00 47 1217.5
20260506182042 61 75 2.6 5.2 0.00 0.00 0.00 47 1217.5
20260506181350 61 142 1.7 4.3 0.00 0.00 0.00 47 1217.5
20260506180850 61 90 4.3 4.3 0.00 0.00 0.00 47 1217.5
20260506180350 61 105 2.6 3.5 0.00 0.00 0.00 47 1217.5
20260506175850 61 68 2.6 3.5 0.00 0.00 0.00 47 1217.5
20260506175350 61 112 3.5 5.2 0.00 0.00 0.00 47 1217.5
20260506174850 61 68 5.2 5.2 0.00 0.00 0.00 47 1217.5
20260506174159 62 112 1.7 3.5 0.00 0.00 0.00 47 1217.5
20260506173659 62 112 3.5 3.5 0.00 0.00 0.00 46 1217.5
20260506173159 62 112 1.7 4.3 0.00 0.00 0.00 46 1217.5
20260506172659 62 90 4.3 4.3 0.00 0.00 0.00 46 1218.5
20260506172008 62 90 2.6 4.3 0.00 0.00 0.00 46 1218.5
20260506171508 62 105 2.6 6.1 0.00 0.00 0.00 46 1218.5
20260506171008 62 105 2.6 6.1 0.00 0.00 0.00 46 1218.5
20260506170508 62 90 1.7 3.5 0.00 0.00 0.00 46 1218.5
20260506170008 62 68 2.6 4.3 0.00 0.00 0.00 46 1218.5
20260506165508 62 98 3.5 5.2 0.00 0.00 0.00 45 1218.5
20260506165008 62 79 3.5 5.2 0.00 0.00 0.00 45 1218.5
20260506164317 62 68 5.2 5.2 0.00 0.00 0.00 45 1219.5
20260506163816 62 45 2.6 5.2 0.00 0.00 0.00 45 1219.5
20260506163316 63 98 2.6 5.2 0.00 0.00 0.00 45 1219.5
20260506162816 63 98 1.7 3.5 0.00 0.00 0.00 44 1218.5
20260506162125 63 56 2.6 5.2 0.00 0.00 0.00 44 1218.5
20260506161625 63 105 4.3 5.2 0.00 0.00 0.00 44 1218.5
20260506161125 63 82 2.6 5.2 0.00 0.00 0.00 44 1219.5
20260506160625 63 75 3.5 5.2 0.00 0.00 0.00 44 1219.5
20260506160125 63 45 2.6 3.5 0.00 0.00 0.00 44 1219.5
20260506155625 63 82 1.7 4.3 0.00 0.00 0.00 44 1218.5
20260506154934 63 112 3.5 5.2 0.00 0.00 0.00 44 1218.5
20260506154434 63 82 5.2 5.2 0.00 0.00 0.00 44 1218.5
20260506153934 63 90 1.7 7.0 0.00 0.00 0.00 44 1218.5
20260506153242 63 45 3.5 5.2 0.00 0.00 0.00 44 1218.5
20260506152742 63 60 2.6 7.8 0.00 0.00 0.00 44 1219.5
20260506152242 64 112 4.3 7.8 0.00 0.00 0.00 44 1219.5
20260506151742 64 45 3.5 4.3 0.00 0.00 0.00 44 1219.5
20260506151242 64 68 3.5 4.3 0.00 0.00 0.00 44 1219.5
20260506150551 64 112 1.7 4.3 0.00 0.00 0.00 44 1219.5
20260506150051 64 112 4.3 5.2 0.00 0.00 0.00 44 1219.5
20260506145551 64 96 2.6 5.2 0.00 0.00 0.00 44 1219.5
20260506144900 64 79 3.5 4.3 0.00 0.00 0.00 44 1219.5
20260506144400 64 90 2.6 5.2 0.00 0.00 0.00 44 1219.5
20260506143900 64 68 2.6 5.2 0.00 0.00 0.00 44 1219.5
20260506143400 64 112 2.6 3.5 0.00 0.00 0.00 44 1219.5
20260506142900 64 82 0.9 3.5 0.00 0.00 0.00 44 1219.5
20260506142400 64 112 2.6 3.5 0.00 0.00 0.00 44 1219.5
20260506141900 64 105 2.6 3.5 0.00 0.00 0.00 44 1219.5
20260506141400 64 135 1.7 3.5 0.00 0.00 0.00 44 1219.5
20260506140900 64 112 3.5 3.5 0.00 0.00 0.00 44 1217.5
20260506140209 64 90 2.6 6.1 0.00 0.00 0.00 44 1217.5
20260506135708 64 128 5.2 6.1 0.00 0.00 0.00 43 1217.5
20260506135017 65 68 0.9 2.6 0.00 0.00 0.00 43 1217.5
20260506134517 65 68 0.9 2.6 0.00 0.00 0.00 43 1217.5
20260506134017 65 112 2.6 2.6 0.00 0.00 0.00 43 1220.5
20260506133517 65 112 0.0 2.6 0.00 0.00 0.00 43 1220.5
20260506133017 65 112 1.7 2.6 0.00 0.00 0.00 43 1220.5
20260506132517 65 68 0.9 2.6 0.00 0.00 0.00 43 1220.5
20260506131826 65 128 1.7 2.6 0.00 0.00 0.00 43 1220.5
20260506131326 66 112 2.6 2.6 0.00 0.00 0.00 43 1220.5
20260506130826 66 68 2.6 2.6 0.00 0.00 0.00 43 1219.5
20260506130134 66 112 0.9 3.5 0.00 0.00 0.00 43 1219.5
20260506125634 66 120 2.6 3.5 0.00 0.00 0.00 43 1217.5
20260506125135 66 120 1.7 2.6 0.00 0.00 0.00 42 1217.5
20260506124635 66 112 2.6 2.6 0.00 0.00 0.00 42 1217.5
20260506124135 66 158 0.9 3.5 0.00 0.00 0.00 42 1217.5
20260506123635 66 112 1.7 4.3 0.00 0.00 0.00 42 1217.5
20260506123135 67 150 2.6 4.3 0.00 0.00 0.00 42 1217.5
20260506122443 67 148 0.9 2.6 0.00 0.00 0.00 42 1220.5
20260506121943 67 135 0.9 1.7 0.00 0.00 0.00 42 1220.5
20260506121443 67 188 0.9 2.6 0.00 0.00 0.00 42 1220.5
20260506120943 67 124 0.9 2.6 0.00 0.00 0.00 42 1219.5
20260506120443 67 112 0.0 2.6 0.00 0.00 0.00 42 1219.5
20260506115943 67 128 0.9 2.6 0.00 0.00 0.00 42 1219.5
20260506115252 67 94 0.9 2.6 0.00 0.00 0.00 41 1219.5
20260506114752 67 128 0.0 2.6 0.00 0.00 0.00 41 1219.5
20260506114252 67 82 1.7 2.6 0.00 0.00 0.00 41 1220.5
20260506113601 68 112 0.9 2.6 0.00 0.00 0.00 40 1220.5
20260506113100 68 98 1.7 2.6 0.00 0.00 0.00 40 1220.5
20260506112600 68 107 0.9 2.6 0.00 0.00 0.00 39 1221.5
20260506112100 68 90 1.7 3.5 0.00 0.00 0.00 39 1221.5
20260506111600 68 158 2.6 3.5 0.00 0.00 0.00 39 1221.5
20260506111101 68 158 0.0 1.7 0.00 0.00 0.00 39 1222.6
20260506110409 68 188 0.0 1.7 0.00 0.00 0.00 38 1222.6
20260506105909 69 112 0.9 2.6 0.00 0.00 0.00 37 1222.6
20260506105409 69 98 0.9 2.6 0.00 0.00 0.00 37 1221.5
20260506104909 69 82 0.9 1.7 0.00 0.00 0.00 37 1221.5
20260506104409 69 142 0.9 1.7 0.00 0.00 0.00 36 1221.5
20260506103909 69 101 0.9 1.7 0.00 0.00 0.00 36 1221.5
20260506103218 70 105 0.9 3.5 0.00 0.00 0.00 36 1221.5
20260506102718 70 90 0.0 3.5 0.00 0.00 0.00 35 1220.5
20260506102026 70 105 0.9 2.6 0.00 0.00 0.00 35 1220.5
20260506101527 70 112 0.9 2.6 0.00 0.00 0.00 35 1220.5
20260506101026 70 90 0.9 3.5 0.00 0.00 0.00 35 1221.5
20260506100526 71 105 1.7 3.5 0.00 0.00 0.00 34 1221.5
20260506100026 71 128 2.6 3.5 0.00 0.00 0.00 34 1221.5
20260506095526 71 112 1.7 2.6 0.00 0.00 0.00 34 1222.6
20260506094835 71 112 0.9 3.5 0.00 0.00 0.00 34 1222.6
20260506094335 71 112 2.6 2.6 0.00 0.00 0.00 34 1222.6
20260506093835 72 82 1.7 3.5 0.00 0.00 0.00 34 1221.5
20260506093335 72 90 3.5 3.5 0.00 0.00 0.00 33 1221.5
20260506092835 72 112 1.7 2.6 0.00 0.00 0.00 33 1221.5
20260506092335 72 105 1.7 3.5 0.00 0.00 0.00 33 1221.5
20260506091835 72 68 1.7 4.3 0.00 0.00 0.00 33 1221.5
20260506091335 73 112 2.6 4.3 0.00 0.00 0.00 32 1221.5
20260506090835 73 90 1.7 5.2 0.00 0.00 0.00 32 1221.5
20260506090143 73 105 3.5 5.2 0.00 0.00 0.00 32 1221.5
20260506085644 73 158 0.9 4.3 0.00 0.00 0.00 32 1221.5
20260506084952 74 90 4.3 4.3 0.00 0.00 0.00 31 1221.5
20260506084452 74 98 2.6 5.2 0.00 0.00 0.00 31 1221.5
20260506083952 74 105 2.6 7.0 0.00 0.00 0.00 31 1221.5
20260506083452 74 112 7.0 7.0 0.00 0.00 0.00 31 1221.5
20260506082801 74 22 2.6 7.0 0.00 0.00 0.00 31 1222.6
20260506082304 75 112 3.5 7.0 0.00 0.00 0.00 30 1222.6
20260506081801 75 105 2.6 4.3 0.00 0.00 0.00 30 1222.6
20260506081301 75 84 2.6 3.5 0.00 0.00 0.00 28 1223.6
20260506080801 76 101 3.5 4.3 0.00 0.00 0.00 27 1223.6
20260506080301 76 105 3.5 5.2 0.00 0.00 0.00 26 1223.6
20260506073418 79 158 5.2 7.0 0.00 0.00 0.00 21 1222.6
20260506072918 80 105 5.2 7.0 0.00 0.00 0.00 18 1222.6
20260506072418 81 112 3.5 8.7 0.00 0.00 0.00 12 1222.6
20260506071919 82 60 4.3 8.7 0.00 0.00 0.00 8 1222.6
20260506071227 84 60 3.5 6.1 0.00 0.00 0.00 6 1222.6
20260506070727 85 112 2.6 6.1 0.00 0.00 0.00 8 1222.6
20260506070227 84 52 3.5 6.1 0.00 0.00 0.00 7 1222.6
20260506062036 94 52 5.2 6.1 0.00 0.00 0.00 2 1220.5
20260506061345 105 68 4.3 5.2 0.00 0.00 0.00 2 1220.5
20260506060845 102 112 4.3 7.0 0.00 0.00 0.00 2 1220.5
20260506060344 100 68 3.5 7.0 0.00 0.00 0.00 2 1220.5
20260506051002 76 68 6.1 7.8 0.00 0.00 0.00 33 1217.5
20260506050502 76 22 1.7 7.8 0.00 0.00 0.00 33 1217.5
20260506044810 75 34 4.3 4.3 0.00 0.00 0.00 35 1215.5
20260506044310 75 101 4.3 5.2 0.00 0.00 0.00 36 1215.5
20260506043810 74 56 3.5 6.1 0.00 0.00 0.00 35 1214.5
20260506043310 74 30 4.3 7.8 0.00 0.00 0.00 36 1214.5
20260506042619 74 120 3.5 7.8 0.00 0.00 0.00 37 1214.5
20260506042119 74 82 5.2 7.8 0.00 0.00 0.00 37 1214.5
20260506041619 73 90 3.5 6.1 0.00 0.00 0.00 38 1214.5
20260506041119 73 34 4.3 10.4 0.00 0.00 0.00 38 1212.5
20260506040619 73 52 5.2 10.4 0.00 0.00 0.00 39 1212.5
20260506040119 72 22 6.1 7.8 0.00 0.00 0.00 40 1212.5
20260506035619 72 90 3.5 7.0 0.00 0.00 0.00 40 1209.4
20260506035119 72 75 5.2 7.0 0.00 0.00 0.00 41 1209.4
20260506034428 72 62 6.1 8.7 0.00 0.00 0.00 41 1209.4
20260506033928 72 60 5.2 8.7 0.00 0.00 0.00 42 1208.4
20260506033428 71 34 2.6 8.7 0.00 0.00 0.00 43 1208.4
20260506032928 71 68 5.2 8.7 0.00 0.00 0.00 43 1208.4
20260506032237 70 45 6.1 9.6 0.00 0.00 0.00 44 1204.4
20260506031737 70 90 9.6 9.6 0.00 0.00 0.00 45 1204.4
20260506031237 70 30 4.3 7.0 0.00 0.00 0.00 45 1201.4
20260506030737 70 82 5.2 7.0 0.00 0.00 0.00 46 1201.4
20260506030045 70 107 2.6 5.2 0.00 0.00 0.00 49 1201.4
20260506025545 69 98 2.6 7.0 0.00 0.00 0.00 50 1199.3
20260506025045 69 68 5.2 7.0 0.00 0.00 0.00 50 1199.3
20260506024545 68 56 4.3 7.0 0.00 0.00 0.00 50 1199.3
20260506024045 68 79 6.1 7.8 0.00 0.00 0.00 51 1197.3
20260506023354 68 90 4.3 7.8 0.00 0.00 0.00 53 1197.3
20260506022854 67 52 3.5 7.8 0.00 0.00 0.00 53 1197.3
20260506022354 67 60 3.5 9.6 0.00 0.00 0.00 54 1192.3
20260506021854 67 68 3.5 9.6 0.00 0.00 0.00 55 1192.3
20260506021354 66 90 5.2 7.8 0.00 0.00 0.00 56 1192.3
20260506020854 66 90 5.2 7.8 0.00 0.00 0.00 57 1193.3
20260506020203 66 75 5.2 7.8 0.00 0.00 0.00 58 1193.3
20260506015703 65 112 2.6 7.8 0.00 0.00 0.00 58 1193.3
20260506015203 65 98 4.3 7.8 0.00 0.00 0.00 59 1193.3
20260506014703 65 60 4.3 7.8 0.00 0.00 0.00 59 1193.3
20260506014203 64 45 7.0 7.8 0.00 0.00 0.00 60 1191.3
20260506013703 64 90 4.3 7.0 0.00 0.00 0.00 61 1191.3
20260506013012 64 90 4.3 8.7 0.00 0.00 0.00 62 1191.3
20260506012321 64 68 8.7 8.7 0.00 0.00 0.00 63 1190.2
20260506011820 63 68 5.2 7.8 0.00 0.00 0.00 63 1190.2
20260506011320 63 76 7.0 7.8 0.00 0.00 0.00 64 1190.2
20260506010820 63 68 7.0 7.8 0.00 0.00 0.00 64 1190.2
20260506010321 63 82 3.5 5.2 0.00 0.00 0.00 65 1190.2
20260506005821 63 79 3.5 8.7 0.00 0.00 0.00 65 1190.2
20260506005320 63 90 8.7 8.7 0.00 0.00 0.00 66 1189.2
20260506004821 62 68 2.6 6.1 0.00 0.00 0.00 66 1189.2
20260506004129 62 79 5.2 6.1 0.00 0.00 0.00 67 1189.2
20260506003629 62 90 1.7 5.2 0.00 0.00 0.00 67 1189.2
20260506003129 61 112 4.3 5.2 0.00 0.00 0.00 67 1189.2
20260506002629 61 90 0.9 3.5 0.00 0.00 0.00 67 1186.2
20260506002129 61 79 3.5 3.5 0.00 0.00 0.00 67 1186.2
20260506001438 61 90 3.5 3.5 0.00 0.00 0.00 67 1186.2
20260506000938 60 90 3.5 3.5 0.00 0.00 0.00 67 1189.2
20260506000438 60 68 3.5 5.2 0.00 0.00 0.00 67 1189.2
20260505235938 60 101 4.3 5.2 0.00 0.00 0.00 67 1189.2
20260505235246 60 0.0 0.0 0.00 0.00 0.00 67 1186.2
20260505234747 59 0.0 0.0 0.00 0.00 0.00 67 1186.2
20260505234247 59 0.0 0.0 0.00 0.00 0.00 67 1188.2
20260505233747 59 0.0 0.0 0.00 0.00 0.00 67 1188.2
20260505233246 59 0.0 0.0 0.00 0.00 0.00 67 1188.2
20260505232747 59 0.0 0.0 0.00 0.00 0.00 67 1191.3
20260505232055 59 0.0 0.0 0.00 0.00 0.00 67 1191.3
20260505231555 59 0.0 0.0 0.00 0.00 0.00 66 1191.3
20260505231055 59 0.0 0.0 0.00 0.00 0.00 66 1193.3
20260505230555 59 0.0 0.0 0.00 0.00 0.00 66 1193.3
20260505230055 59 0.0 0.0 0.00 0.00 0.00 66 1193.3
20260505225555 59 0.0 0.0 0.00 0.00 0.00 66 1197.3
20260505224904 59 0.0 0.0 0.00 0.00 0.00 66 1197.3
20260505224404 59 0.0 0.0 0.00 0.00 0.00 66 1197.3
20260505223903 59 0.0 0.0 0.00 0.00 0.00 65 1196.3
20260505223404 59 0.0 0.0 0.00 0.00 0.00 65 1196.3
20260505222712 59 0.0 0.0 0.00 0.00 0.00 65 1197.3
20260505222213 59 0.0 0.0 0.00 0.00 0.00 65 1197.3
20260505221712 59 0.0 0.0 0.00 0.00 0.00 65 1197.3
20260505221212 60 0.0 0.0 0.00 0.00 0.00 65 1196.3
20260505220712 60 0 0.0 3.5 0.00 0.00 0.00 65 1196.3
20260505220021 60 112 3.5 3.5 0.00 0.00 0.00 64 1196.3
20260505215521 59 112 3.5 3.5 0.00 0.00 0.00 64 1195.3
20260505215021 60 112 2.6 3.5 0.00 0.00 0.00 64 1195.3
20260505214521 60 112 2.6 3.5 0.00 0.00 0.00 64 1195.3
20260505214021 59 112 3.5 3.5 0.00 0.00 0.00 63 1200.3
20260505213521 60 135 2.6 3.5 0.00 0.00 0.00 63 1200.3
20260505212830 59 124 2.6 3.5 0.00 0.00 0.00 63 1200.3
20260505212330 59 112 2.6 2.6 0.00 0.00 0.00 62 1201.4